This is the latest recevied weather packets stored in our database for station/object K8MUD. If no packets are shown the sender has not sent any weather packets the latest 10 day(s).
| Time | Temp. | Humidity | Pressure | Rain* | Wind** | Luminosity | Snow |
|---|---|---|---|---|---|---|---|
| 1777673241 | 8.33° C | 71% | 1014 hPa | 0 mm | - | - | - |
| 1777672941 | 8.89° C | 70% | 1013.9 hPa | 0 mm | - | - | - |
| 1777672641 | 8.89° C | 68% | 1013.9 hPa | 0 mm | - | - | - |
| 1777672340 | 8.89° C | 65% | 1013.8 hPa | 0 mm | - | - | - |
| 1777672041 | 8.89° C | 59% | 1013.7 hPa | 0 mm | - | - | - |
| 1777671740 | 8.89° C | 59% | 1013.8 hPa | 0 mm | - | - | - |
| 1777671440 | 8.89° C | 60% | 1013.8 hPa | 0 mm | - | - | - |
| 1777671140 | 8.89° C | 60% | 1013.6 hPa | 0 mm | - | - | - |
| 1777670840 | 8.89° C | 59% | 1013.7 hPa | 0 mm | - | - | - |
| 1777670540 | 8.89° C | 61% | 1013.6 hPa | 0 mm | - | - | - |
| 1777670240 | 8.89° C | 60% | 1013.5 hPa | 0 mm | - | - | - |
| 1777669940 | 8.89° C | 61% | 1013.5 hPa | 0 mm | - | - | - |
| 1777669640 | 8.89° C | 61% | 1013.4 hPa | 0 mm | - | - | - |
| 1777669340 | 8.89° C | 60% | 1013.3 hPa | 0 mm | - | - | - |
| 1777669040 | 8.89° C | 60% | 1013.3 hPa | 0 mm | - | - | - |
| 1777668740 | 8.89° C | 59% | 1013.3 hPa | 0 mm | - | - | - |
| 1777668439 | 9.44° C | 59% | 1013.3 hPa | 0 mm | - | - | - |
| 1777668139 | 9.44° C | 59% | 1013.2 hPa | 0 mm | - | - | - |
| 1777667839 | 9.44° C | 58% | 1013.1 hPa | 0 mm | - | - | - |
| 1777667539 | 10° C | 58% | 1013.2 hPa | 0 mm | - | - | - |
| 1777667239 | 10° C | 59% | 1013.3 hPa | 0 mm | - | - | - |
| 1777666939 | 10° C | 60% | 1013.3 hPa | 0 mm | - | - | - |
| 1777666639 | 9.44° C | 61% | 1013.4 hPa | 0 mm | - | - | - |
| 1777666339 | 9.44° C | 59% | 1013.3 hPa | 0 mm | - | - | - |
| 1777666039 | 9.44° C | 62% | 1013.2 hPa | 0 mm | - | - | - |
* Rain latest hour (hover to see other rain measurements)
** Current wind speed in m/s (hover to see current wind gust speed)